STARLINK-2315, 47789

Orbit data source: Space-Track

STARLINK-2315, 47789 is a payload satellite owned by SpaceX/Seattle (US) in LEO that was launched on Thu, 11 Mar 2021 UTC via an FALCON 9 launch vehicle from the Air Force Eastern Test Range (AFETR). Payload-class satellites include a variety of spacecraft equipped with specific instruments for various scientific and technological missions. These include communications satellites like Starlink; space stations such as the ISS; scientific satellites like the Hubble; Earth observation satellites from companies like Planet Labs, Umbra, and HawkEye 360; GPS; miniature CubeSats for education and research; and military/defense satellites.

Loading next visibility...
Identifier
47789, 2021-018C
Orbit
LEO
Country
Flag of USUS
Related business
Manufacturer
SpaceX/Seattle
Mission
Operational Commercial Communications
Bus & Motor
STARLINK, Unknown motor
Mass
260 kg wet, ~248 kg dry
Launch date (UTC)
2021-03-11 (5 years ago)
Launch vehicle
FALCON 9
Launch site
Air Force Eastern Test Range (AFETR)
Object type
Payload
Rocket body
Debris
Shape & HBR
Box + 1 Pan, 10.1 m
Radar Cross Section
13.562 m², Large (>1 m²)

Expand to show TLE details & history
Last TLE update: 2 days ago

TLE from 2 days ago
0 STARLINK-2315
1 47789U 21018C   26171.15346724  .00003457  00000-0  12317-3 0  9992
2 47789  53.1606 122.6307 0001346  86.6405 273.4750 15.31687976292466
Epoch: 2026-06-20T03:40Z
TLE epoch observation values (Epoch: 2026-06-20T03:40:59.569Z)
Latitude
-0.00005°
Longitude
159.01028°
Altitude
471.62 km
Speed
7.631 km/s
True Right ascension
08h 10m 31s
True Declination
0° 00' 00"
Sunlit
Object was in daylight at epoch
Visualization orbit readout
Latitude
Unknown
Longitude
Unknown
Altitude
Unknown
Speed
Unknown
Apparent Right ascension
Unknown
Apparent Declination
Unknown
Sunlit
N/A
Visualization observer readout
Local Sidereal Time
21:52:10
Azimuth
Unknown
Elevation
Unknown
Doppler factor
Unknown
Orbital elements
Apogee altitude
471.954 km
Perigee altitude
470.11 km
Semi-major axis
6,849.169 km
Eccentricity
0.00013
Inclination
53.1606°
RAAN
122.6307°
Arg. of periapsis
86.6405°
True anomaly
273.4596°
Mean anomaly
273.475°
Eccentric anomaly
273.4673°
Mean motion
3.82901 °/min
Orbital period
94.02 mins
BSTAR
0.00012317
Loading maneuver chart data...
Computing Atmospheric mass density...

Documentation

Showing up to 5 results
|